Weather History for Watford City, ND

Change the Weather History Date:

Thursday, December 12, 2013

  Actual Average (KISN) Record (KISN)
Temperature  
Mean Temperature 20 °F 14 °F  
Max Temperature 32 °F 25 °F 54 °F (1969)
Min Temperature 8 °F 4 °F -29 °F (1917)
Degree Days  
Heating Degree Days 45 50  
Month to date heating degree days 581  
Since 1 July heating degree days 2743  
Cooling Degree Days 0 0  
Month to date cooling degree days 0  
Year to date cooling degree days 456  
Moisture  
Dew Point 14 °F    
Average Humidity 81    
Maximum Humidity 93    
Minimum Humidity 64    
Precipitation  
Precipitation 0.00 in 0.02 in 0.29 in (1933)
Month to date precipitation 0.23  
Year to date precipitation 13.98  
Sea Level Pressure  
Sea Level Pressure 30.01 in    
Wind  
Wind Speed 6 mph (South)    
Max Wind Speed 20 mph    
Max Gust Speed 23 mph    
Visibility 10 miles    
Events      
T = Trace of Precipitation, MM = Missing Value Source: NWS Daily Summary

Daily Weather History Graph

Daily Weather History Graph

Search for Another Location

Airport:

Trip Planner

Search our weather history database for the weather conditions in past years. The results will help you decide how hot, cold, wet, or windy it might be!

Date:

Astronomy

Dec. 12, 2013 Rise Set
Actual Time 8:33 AM CST 5:00 PM CST
Civil Twilight 7:57 AM CST 5:36 PM CST
Nautical Twilight 7:17 AM CST 6:16 PM CST
Astronomical Twilight 6:40 AM CST 6:53 PM CST
Moon 2:23 PM CST (12/12) 3:42 AM CST (12/12)
Length of Visible Light 9h 39m
Length of Day
8h 27m
Waxing Gibbous, 80% of the Moon is Illuminated
Dec 12
Waxing Gibbous
Dec 17
Full
Dec 25
Last Quarter
Jan 1
New
Jan 7
First Quarter

Hourly Weather History & Observations

Time (CST) Temp. Windchill Dew Point Humidity Pressure Visibility Wind Dir Wind Speed Gust Speed Precip Events Conditions
12:15 AM 10.4 °F -1.5 °F 6.8 °F 85% 30.08 in 10.0 mi SSW 8.1 mph - N/A   Clear
12:35 AM 14.0 °F 5.1 °F 8.6 °F 79% 30.08 in 10.0 mi SSW 5.8 mph - N/A   Clear
12:55 AM 14.0 °F 3.9 °F 8.6 °F 79% 30.08 in 10.0 mi SW 6.9 mph - N/A   Clear
1:15 AM 14.0 °F 3.9 °F 8.6 °F 79% 30.07 in 10.0 mi SSW 6.9 mph - N/A   Clear
1:35 AM 15.8 °F 5.1 °F 10.4 °F 79% 30.07 in 10.0 mi SW 8.1 mph - N/A   Clear
1:55 AM 15.8 °F 6.1 °F 10.4 °F 79% 30.06 in 10.0 mi WSW 6.9 mph - N/A   Clear
2:15 AM 15.8 °F 8.6 °F 10.4 °F 79% 30.07 in 10.0 mi SW 4.6 mph - N/A   Clear
2:35 AM 15.8 °F 10.2 °F 10.4 °F 79% 30.08 in 10.0 mi SW 3.5 mph - N/A   Clear
2:55 AM 15.8 °F - 12.2 °F 86% 30.08 in 10.0 mi Calm Calm - N/A   Clear
3:15 AM 17.6 °F - 12.2 °F 79% 30.08 in 10.0 mi Calm Calm - N/A   Clear
3:35 AM 17.6 °F - 14.0 °F 86% 30.08 in 10.0 mi Calm Calm - N/A   Clear
3:55 AM 17.6 °F 12.3 °F 14.0 °F 86% 30.07 in 10.0 mi SSW 3.5 mph - N/A   Partly Cloudy
4:15 AM 17.6 °F 10.7 °F 14.0 °F 86% 30.06 in 10.0 mi SSW 4.6 mph - N/A   Partly Cloudy
4:35 AM 17.6 °F 12.3 °F 14.0 °F 86% 30.05 in 10.0 mi SSW 3.5 mph - N/A   Mostly Cloudy
4:55 AM 17.6 °F - 14.0 °F 86% 30.05 in 10.0 mi Calm Calm - N/A   Mostly Cloudy
5:15 AM 17.6 °F - 14.0 °F 86% 30.04 in 10.0 mi Calm Calm - N/A   Partly Cloudy
5:35 AM 17.6 °F - 14.0 °F 86% 30.03 in 10.0 mi Calm Calm - N/A   Clear
5:55 AM 17.6 °F 12.3 °F 14.0 °F 86% 30.03 in 10.0 mi South 3.5 mph - N/A   Mostly Cloudy
6:15 AM 19.4 °F 14.3 °F 14.0 °F 80% 30.03 in 10.0 mi SSE 3.5 mph - N/A   Overcast
6:35 AM 19.4 °F - 15.8 °F 86% 30.03 in 10.0 mi Calm Calm - N/A   Overcast
6:55 AM 19.4 °F 12.8 °F 15.8 °F 86% 30.03 in 10.0 mi SW 4.6 mph - N/A   Overcast
7:15 AM 23.0 °F 15.8 °F 17.6 °F 80% 30.02 in 10.0 mi SW 5.8 mph - N/A   Overcast
7:35 AM 23.0 °F 18.4 °F 17.6 °F 80% 30.02 in 10.0 mi WSW 3.5 mph - N/A   Mostly Cloudy
7:55 AM 21.2 °F - 17.6 °F 86% 30.02 in 10.0 mi Calm Calm - N/A   Partly Cloudy
8:15 AM 19.4 °F 14.3 °F 15.8 °F 86% 30.02 in 10.0 mi SSW 3.5 mph - N/A   Clear
8:35 AM 19.4 °F 9.5 °F 15.8 °F 86% 30.02 in 10.0 mi SW 8.1 mph - N/A   Clear
8:55 AM 19.4 °F 11.5 °F 17.6 °F 93% 30.03 in 10.0 mi WSW 5.8 mph - N/A   Clear
9:15 AM 19.4 °F 12.8 °F 15.8 °F 86% 30.02 in 10.0 mi SW 4.6 mph - N/A   Clear
9:35 AM 21.2 °F 16.4 °F 17.6 °F 86% 30.03 in 10.0 mi SW 3.5 mph - N/A   Clear
9:55 AM 23.0 °F 14.7 °F 17.6 °F 80% 30.03 in 10.0 mi SW 6.9 mph - N/A   Clear
10:15 AM 23.0 °F 14.7 °F 17.6 °F 80% 30.03 in 10.0 mi SW 6.9 mph - N/A   Clear
10:35 AM 24.8 °F 19.1 °F 17.6 °F 74% 30.03 in 10.0 mi SW 4.6 mph - N/A   Clear
10:55 AM 26.6 °F 22.6 °F 19.4 °F 74% 30.04 in 10.0 mi WSW 3.5 mph - N/A   Clear
11:15 AM 26.6 °F 20.0 °F 19.4 °F 74% 30.03 in 10.0 mi WSW 5.8 mph - N/A   Clear
11:35 AM 26.6 °F 20.0 °F 19.4 °F 74% 30.03 in 10.0 mi WSW 5.8 mph - N/A   Clear
11:55 AM 28.4 °F 20.4 °F 19.4 °F 69% 30.03 in 10.0 mi WSW 8.1 mph - N/A   Clear
12:15 PM 28.4 °F 19.7 °F 19.4 °F 69% 30.02 in 10.0 mi SW 9.2 mph - N/A   Clear
12:35 PM 30.2 °F 22.6 °F 19.4 °F 64% 30.01 in 10.0 mi SW 8.1 mph - N/A   Clear
12:55 PM 28.4 °F 19.7 °F 19.4 °F 69% 30.00 in 10.0 mi SW 9.2 mph - N/A   Clear
1:15 PM 28.4 °F 21.2 °F 19.4 °F 69% 30.00 in 10.0 mi SW 6.9 mph - N/A   Partly Cloudy
1:35 PM 28.4 °F 20.4 °F 21.2 °F 74% 29.99 in 10.0 mi SW 8.1 mph - N/A   Clear
1:55 PM 30.2 °F 22.6 °F 21.2 °F 69% 29.99 in 10.0 mi SW 8.1 mph - N/A   Clear
2:15 PM 32.0 °F 24.8 °F 21.2 °F 64% 29.99 in 10.0 mi SW 8.1 mph - N/A   Clear
2:35 PM 32.0 °F 24.2 °F 21.2 °F 64% 29.99 in 10.0 mi WSW 9.2 mph - N/A   Clear
2:55 PM 32.0 °F 26.4 °F 21.2 °F 64% 29.98 in 10.0 mi WSW 5.8 mph - N/A   Clear
3:15 PM 30.2 °F - 23.0 °F 75% 29.98 in 10.0 mi Calm Calm - N/A   Clear
3:35 PM 28.4 °F 24.6 °F 21.2 °F 74% 29.98 in 10.0 mi WSW 3.5 mph - N/A   Clear
3:55 PM 28.4 °F - 21.2 °F 74% 29.98 in 10.0 mi Calm Calm - N/A   Clear
4:15 PM 26.6 °F - 21.2 °F 80% 29.98 in 10.0 mi Calm Calm - N/A   Clear
4:35 PM 26.6 °F 21.2 °F 21.2 °F 80% 29.98 in 10.0 mi NE 4.6 mph - N/A   Clear
4:55 PM 24.8 °F 19.1 °F 19.4 °F 80% 29.97 in 10.0 mi ENE 4.6 mph - N/A   Clear
5:15 PM 23.0 °F 17.0 °F 17.6 °F 80% 29.97 in 10.0 mi North 4.6 mph - N/A   Clear
5:35 PM 19.4 °F 11.5 °F 17.6 °F 93% 29.97 in 10.0 mi NNE 5.8 mph - N/A   Clear
5:55 PM 17.6 °F 2.7 °F 14.0 °F 86% 29.96 in 10.0 mi East 16.1 mph - N/A   Clear
6:15 PM 14.0 °F -2.5 °F 10.4 °F 86% 29.96 in 10.0 mi East 17.3 mph - N/A   Clear
6:35 PM 14.0 °F -3.4 °F 10.4 °F 86% 29.96 in 10.0 mi East 19.6 mph - N/A   Clear
6:55 PM 12.2 °F -3.7 °F 8.6 °F 85% 29.97 in 10.0 mi East 15.0 mph - N/A   Clear
7:15 PM 10.4 °F -7.2 °F 6.8 °F 85% 29.97 in 10.0 mi East 17.3 mph 21.9 mph N/A   Clear
7:35 PM 10.4 °F -6.6 °F 6.8 °F 85% 29.97 in 10.0 mi East 16.1 mph 20.7 mph N/A   Clear
7:55 PM 10.4 °F -6.0 °F 6.8 °F 85% 29.97 in 10.0 mi East 15.0 mph - N/A   Clear
8:15 PM 8.6 °F -5.5 °F 6.8 °F 92% 29.98 in 10.0 mi East 10.4 mph 16.1 mph N/A   Scattered Clouds
8:35 PM 10.4 °F -4.8 °F 6.8 °F 85% 29.97 in 10.0 mi East 12.7 mph - N/A   Overcast
8:55 PM 10.4 °F -4.1 °F 6.8 °F 85% 29.98 in 10.0 mi East 11.5 mph - N/A   Overcast
9:15 PM 10.4 °F -6.6 °F 6.8 °F 85% 29.98 in 10.0 mi East 16.1 mph 23.0 mph N/A   Overcast
9:35 PM 10.4 °F -4.8 °F 6.8 °F 85% 29.98 in 10.0 mi East 12.7 mph 17.3 mph N/A   Overcast
9:55 PM 8.6 °F -7.0 °F 6.8 °F 92% 29.97 in 10.0 mi East 12.7 mph 17.3 mph N/A   Overcast
10:15 PM 8.6 °F -6.3 °F 6.8 °F 92% 29.97 in 10.0 mi East 11.5 mph - N/A   Overcast
10:35 PM 8.6 °F -4.7 °F 6.8 °F 92% 29.97 in 10.0 mi East 9.2 mph 16.1 mph N/A   Overcast
10:55 PM 8.6 °F -7.7 °F 6.8 °F 92% 29.96 in 10.0 mi ESE 13.8 mph 18.4 mph N/A   Overcast
11:15 PM 8.6 °F -5.5 °F 6.8 °F 92% 29.96 in 10.0 mi East 10.4 mph 16.1 mph N/A   Overcast
11:35 PM 8.6 °F -4.7 °F 6.8 °F 92% 29.96 in 10.0 mi East 9.2 mph - N/A   Overcast
11:55 PM 10.4 °F -4.1 °F 6.8 °F 85% 29.96 in 10.0 mi East 11.5 mph - N/A   Overcast